User: anonymous
Location: Eckley
(40.9930°N, 75.8630°W)
Time: 13:44:38
(UTC-04:00)
Language:

Cosmos 2221 Rocket - Orbit

View from above orbital plane
View from above orbital plane
View from above satellite
View from above satellite

Ground track
Ground track

The orbit data is extracted from the following two-line orbital elements,

1 22237U 92080B   14260.47953100  .00000348  00000-0  45131-4 0  4311
2 22237 082.5140 331.2137 0018760 243.9011 192.0592 14.77900370175166
Epoch (UTC): 17 September 2014 11:30:31
Eccentricity: 0.0018760
inclination: 82.5140°
perigee height: 623 km
apogee height: 649 km
right ascension of ascending node: 331.2137°
argument of perigee: 243.9011°
revolutions per day: 14.77900370
mean anomaly at epoch: 192.0592°
orbit number at epoch: 17516

The dashed part of the orbit path shows where the satellite is in the earth's shadow,  

DLR